#timestamp,LO_Frequency,Hit 
1500458415.8,286046872.1,N
1500458435.6,286046872.6,N
1500458455.5,286046872.2,N
1500458475.3,286046872.5,N
1500458495.1,286046871.8,N
1500458515.9,286046872.2,N
1500458535.7,286046870.6,N
1500458555.5,286046870.3,N
1500458575.4,286046870.6,N
1500458595.2,286046870.7,N
1500458615.0,286046870.3,N
1500458615.9,286046870.3,N
1500458635.8,286046871.4,N
1500458655.6,286046871.3,N
1500458675.4,286046868.8,N
1500458695.3,286046870.0,N
1500458715.1,286046867.4,N
1500458716.0,286046867.4,N
1500458735.8,286046867.4,N
1500458755.7,286046867.1,N
1500458775.5,286046868.2,N
1500458795.3,286046865.3,N
1500458815.1,286046867.8,N
1500458835.9,286046865.7,N
1500458855.7,286046866.0,N
1500458875.5,286046866.7,N
1500458895.4,286046864.1,N
1500458915.2,286046864.9,N
1500458935.0,286046864.9,N
1500458935.9,286046864.9,N
1500458955.8,286046864.5,N
1500458975.6,286046864.5,N
1500458995.4,286046862.2,N
1500459015.3,286046862.4,N
1500459035.1,286046860.6,N
1500459055.8,286046860.5,N
1500459075.7,286046863.4,N
1500459095.5,286046862.9,N
1500459115.3,286046863.0,N
1500459135.2,286046860.9,N
1500459155.9,286046861.3,N
1500459175.7,286046861.4,N
1500459195.6,286046859.6,N
1500459215.4,286046859.9,N
1500459235.2,286046860.4,N
1500459255.1,286046857.8,N
1500459256.0,286046857.8,N
1500459275.8,286046858.5,N
1500459295.6,286046858.4,N
1500459315.5,286046856.4,N
1500459335.3,286046856.5,N
1500459355.1,286046856.8,N
1500459375.8,286046854.7,N
1500459395.7,286046854.5,N
1500459415.5,286046855.0,N
1500459435.3,286046852.6,N
1500459455.2,286046855.2,N
1500459475.9,286046855.2,N
1500459495.7,286046855.6,N
1500459515.6,286046852.5,N
1500459535.4,286046853.0,N
1500459555.2,286046855.2,N
1500459575.1,286046852.6,N
1500459576.0,286046852.6,N
1500459595.8,286046853.2,N
1500459615.6,286046852.7,N
1500459635.5,286046851.2,N
1500459655.3,286046849.6,N
1500459675.1,286046849.8,N
1500459695.9,286046851.7,N
1500459715.7,286046851.2,N
1500459735.5,286046851.6,N
1500459755.3,286046850.4,N
1500459775.2,286046850.7,N
1500459795.0,286046848.0,N
1500459795.9,286046848.0,N
1500459815.7,286046847.9,N
1500459835.6,286046848.1,N
1500459855.4,286046847.9,N
1500459875.2,286046848.7,N
1500459895.1,286046848.3,N
1500459896.0,286046848.3,N
1500459915.8,286046848.3,N
1500459935.6,286046846.2,N
1500459955.5,286046846.3,N
1500459975.3,286046846.5,N
1500459995.1,286046846.8,N
1500460015.9,286046846.7,N
1500460035.7,286046845.0,N
1500460055.5,286046847.1,N
1500460075.4,286046845.1,N
1500460095.2,286046844.6,N
1500460115.0,286046843.0,N
1500460115.9,286046843.0,N
1500460135.8,286046843.7,N
1500460155.6,286046845.5,N
1500460175.4,286046845.8,N
1500460195.3,286046844.8,N
1500460215.1,286046843.6,N
1500460216.0,286046843.6,N
1500460235.8,286046844.2,N
1500460255.7,286046841.8,N
1500460275.5,286046844.3,N
1500460295.3,286046843.7,N
1500460315.1,286046843.0,N
1500460335.9,286046841.5,N
1500460355.7,286046842.4,N
1500460375.5,286046840.2,N
1500460395.4,286046841.0,N
1500460415.2,286046840.8,N
1500460435.0,286046840.1,N
1500460435.9,286046840.1,N
1500460455.8,286046838.5,N
1500460475.6,286046839.3,N
1500460495.4,286046836.5,N
1500460515.3,286046837.3,N
1500460535.1,286046835.3,N
1500460555.8,286046837.9,N
1500460575.7,286046837.5,N
1500460595.5,286046836.7,N
1500460615.3,286046837.9,N
1500460635.2,286046835.5,N
1500460655.9,286046835.2,N
1500460675.7,286046833.8,N
1500460695.6,286046834.2,N
1500460715.4,286046834.5,N
1500460735.2,286046831.8,N
1500460755.1,286046832.7,N
1500460756.0,286046832.7,N
1500460775.8,286046833.0,N
1500460795.6,286046832.5,N
1500460815.5,286046830.2,N
1500460835.3,286046830.7,N
1500460855.1,286046828.7,N
1500460875.8,286046828.5,N
1500460895.7,286046829.0,N
1500460915.5,286046829.0,N
1500460935.3,286046827.2,N
1500460955.2,286046827.9,N
1500460975.0,286046827.7,N
1500460975.9,286046827.7,N
1500460995.7,286046827.1,N
1500461015.6,286046828.1,N
1500461035.4,286046826.1,N
1500461055.2,286046826.2,N
1500461075.1,286046826.4,N
1500461076.0,286046826.4,N
1500461095.8,286046826.6,N
1500461115.6,286046826.4,N
1500461135.5,286046824.4,N
1500461155.3,286046824.5,N
1500461175.1,286046824.1,N
1500461195.9,286046822.7,N
1500461215.7,286046822.6,N
1500461235.5,286046822.1,N
1500461255.4,286046822.5,N
1500461275.2,286046820.6,N
1500461295.0,286046820.9,N
1500461295.9,286046820.9,N
1500461315.8,286046821.1,N
1500461335.6,286046821.2,N
1500461355.4,286046821.1,N
1500461375.3,286046819.3,N
1500461395.1,286046821.6,N
1500461396.0,286046821.6,N
1500461415.8,286046820.4,N
1500461435.1,286046818.7,N
1500461455.9,286046815.9,N
1500461475.7,286046816.0,N
1500461495.5,286046816.9,N
1500461515.3,286046817.2,N
1500461535.2,286046814.4,N
1500461555.0,286046815.0,N
1500461555.9,286046815.0,N
1500461575.7,286046812.6,N
1500461595.6,286046812.8,N
1500461615.4,286046813.3,N
1500461635.2,286046815.5,N
1500461655.1,286046815.2,N
1500461656.0,286046815.2,N
1500461675.8,286046814.9,N
1500461695.6,286046815.3,N
1500461715.5,286046815.5,N
1500461735.3,286046813.0,N
1500461755.1,286046815.2,N
1500461775.9,286046813.6,N
1500461795.7,286046814.0,N
1500461815.5,286046813.9,N
1500461835.4,286046811.1,N
1500461855.2,286046812.4,N
1500461875.0,286046809.4,N
1500461875.9,286046809.4,N
1500461895.8,286046807.7,N
1500461915.6,286046807.8,N
1500461935.4,286046808.1,N
1500461955.3,286046808.9,N
1500461975.1,286046808.6,N
1500461995.8,286046809.1,N
